TimeMST,TemperatureF,Dew PointF,Humidity,Sea Level PressureIn,VisibilityMPH,Wind Direction,Wind SpeedMPH,Gust SpeedMPH,PrecipitationIn,Events,Conditions,WindDirDegrees,DateUTC
12:58 AM,26.6,24.8,93,29.69,9.0,North,4.6,-,0.00,Snow,Light Snow,10,2012-11-10 07:58:00
1:11 AM,24.8,21.2,86,29.69,1.5,North,4.6,-,0.00,Snow,Light Snow,10,2012-11-10 08:11:00
1:21 AM,24.8,21.2,86,29.68,0.8,North,3.5,-,0.00,,Overcast,10,2012-11-10 08:21:00
1:50 AM,24.8,21.2,86,29.68,0.2,ESE,3.5,-,0.00,Fog,Light Freezing Fog,120,2012-11-10 08:50:00
1:52 AM,24.1,21.9,91,29.68,0.2,ESE,4.6,-,0.00,Fog,Light Freezing Fog,120,2012-11-10 08:52:00
2:30 AM,26.6,24.8,93,29.68,0.2,Calm,Calm,-,0.00,Fog-Snow,Light Snow,0,2012-11-10 09:30:00
2:35 AM,26.6,24.8,93,29.68,0.2,NW,3.5,-,0.00,Fog-Snow,Light Snow,310,2012-11-10 09:35:00
2:50 AM,26.6,24.8,93,29.69,2.5,South,4.6,-,0.00,Snow,Light Snow,180,2012-11-10 09:50:00
2:52 AM,27.0,25.0,92,29.68,2.0,Calm,Calm,-,0.01,Snow,Light Snow,0,2012-11-10 09:52:00
3:34 AM,28.4,26.6,93,29.68,1.8,Calm,Calm,-,0.01,Snow,Light Snow,0,2012-11-10 10:34:00
3:41 AM,26.6,26.6,100,29.68,1.2,Calm,Calm,-,0.01,Snow,Light Snow,0,2012-11-10 10:41:00
3:49 AM,26.6,26.6,100,29.68,0.8,SSE,3.5,-,0.01,Snow,Light Snow,160,2012-11-10 10:49:00
3:57 AM,26.6,26.6,100,29.68,0.2,Calm,Calm,-,0.01,Fog-Snow,Heavy Snow,0,2012-11-10 10:57:00
4:05 AM,28.4,26.6,93,29.68,0.5,Calm,Calm,-,0.03,Fog-Snow,Snow,0,2012-11-10 11:05:00
4:25 AM,26.6,26.6,100,29.68,1.0,Calm,Calm,-,0.05,Snow,Light Snow,0,2012-11-10 11:25:00
4:41 AM,26.6,24.8,93,29.69,1.8,Calm,Calm,-,0.06,Snow,Light Snow,0,2012-11-10 11:41:00
4:44 AM,26.6,24.8,93,29.69,2.0,Calm,Calm,-,0.06,Snow,Light Snow,0,2012-11-10 11:44:00
4:57 AM,26.6,24.8,93,29.69,5.0,Calm,Calm,-,0.00,Snow,Light Snow,0,2012-11-10 11:57:00
5:23 AM,28.4,24.8,86,29.70,1.5,Calm,Calm,-,0.00,Snow,Light Snow,0,2012-11-10 12:23:00
5:32 AM,28.4,24.8,86,29.70,2.0,Calm,Calm,-,0.01,Snow,Light Snow,0,2012-11-10 12:32:00
5:43 AM,26.6,24.8,93,29.70,3.0,Calm,Calm,-,0.01,Snow,Light Snow,0,2012-11-10 12:43:00
5:56 AM,26.6,26.6,100,29.71,1.5,Calm,Calm,-,0.00,Snow,Light Snow,0,2012-11-10 12:56:00
6:01 AM,26.6,26.6,100,29.71,1.0,Calm,Calm,-,0.00,Snow,Light Snow,0,2012-11-10 13:01:00
6:06 AM,26.6,26.6,100,29.71,0.8,Calm,Calm,-,0.01,Snow,Light Snow,0,2012-11-10 13:06:00
6:19 AM,28.4,26.6,93,29.71,0.5,Calm,Calm,-,0.03,Fog-Snow,Snow,0,2012-11-10 13:19:00
6:28 AM,28.4,26.6,93,29.71,0.5,Calm,Calm,-,0.04,Fog-Snow,Snow,0,2012-11-10 13:28:00
6:54 AM,26.6,26.6,100,29.72,1.8,Calm,Calm,-,0.00,Snow,Light Snow,0,2012-11-10 13:54:00
6:59 AM,26.6,26.6,100,29.72,2.0,Calm,Calm,-,0.00,Snow,Light Snow,0,2012-11-10 13:59:00
7:11 AM,28.4,24.8,86,29.73,1.0,South,3.5,-,0.01,Snow,Light Snow,170,2012-11-10 14:11:00
7:21 AM,28.4,26.6,93,29.73,0.8,South,3.5,-,0.01,Snow,Light Snow,170,2012-11-10 14:21:00
7:30 AM,26.6,26.6,100,29.74,1.2,South,4.6,-,0.01,Snow,Light Snow,170,2012-11-10 14:30:00
7:50 AM,26.6,24.8,93,29.74,4.0,SSE,3.5,-,0.02,Snow,Light Snow,160,2012-11-10 14:50:00
7:51 AM,27.0,25.0,92,29.79,5.0,SSE,3.5,-,0.02,Snow,Light Snow,160,2012-11-10 14:51:00
8:04 AM,24.8,24.8,100,29.75,9.0,South,4.6,-,0.00,,Overcast,180,2012-11-10 15:04:00
8:18 AM,26.6,24.8,93,29.76,10.0,SSW,4.6,-,0.00,,Overcast,200,2012-11-10 15:18:00
8:52 AM,27.0,26.1,96,29.82,10.0,South,5.8,-,0.00,,Overcast,190,2012-11-10 15:52:00
9:06 AM,26.6,26.6,100,29.78,10.0,South,4.6,-,N/A,,Overcast,170,2012-11-10 16:06:00
9:52 AM,28.0,26.1,92,29.84,7.0,South,9.2,-,0.00,Snow,Light Snow,180,2012-11-10 16:52:00
10:14 AM,28.4,26.6,93,29.81,2.5,SSW,8.1,-,0.00,Snow,Light Snow,210,2012-11-10 17:14:00
10:33 AM,28.4,26.6,93,29.82,1.8,SW,8.1,-,0.00,Snow,Light Snow,220,2012-11-10 17:33:00
10:52 AM,27.0,25.0,92,29.88,2.0,West,11.5,-,0.00,Snow,Light Snow,260,2012-11-10 17:52:00
11:02 AM,26.6,24.8,93,29.83,1.2,West,16.1,21.9,0.00,Snow,Light Snow,280,2012-11-10 18:02:00
11:08 AM,26.6,24.8,93,29.83,0.5,West,15.0,-,0.00,Fog-Snow,Snow,280,2012-11-10 18:08:00
11:16 AM,26.6,24.8,93,29.84,0.2,WNW,15.0,-,0.00,Fog-Snow,Snow,300,2012-11-10 18:16:00
11:37 AM,26.6,24.8,93,29.85,0.5,SW,5.8,-,0.03,Fog-Snow,Snow,220,2012-11-10 18:37:00
11:52 AM,27.0,25.0,92,29.91,0.5,SW,4.6,-,0.03,Fog-Snow,Snow,230,2012-11-10 18:52:00
12:17 PM,26.6,24.8,93,29.85,1.2,WNW,6.9,-,0.01,Snow,Light Snow,300,2012-11-10 19:17:00
12:34 PM,28.4,23.0,80,29.84,6.0,Calm,Calm,-,0.01,Snow,Light Snow,0,2012-11-10 19:34:00
12:42 PM,28.4,23.0,80,29.84,10.0,Calm,Calm,-,0.01,,Overcast,0,2012-11-10 19:42:00
12:52 PM,28.9,23.0,78,29.89,10.0,Calm,Calm,-,0.01,,Overcast,0,2012-11-10 19:52:00
1:52 PM,30.0,21.0,69,29.90,10.0,Calm,Calm,-,N/A,,Partly Cloudy,0,2012-11-10 20:52:00
2:52 PM,30.9,21.0,67,29.89,10.0,North,5.8,-,N/A,,Clear,10,2012-11-10 21:52:00
3:52 PM,28.9,21.9,75,29.92,10.0,North,9.2,-,N/A,,Mostly Cloudy,360,2012-11-10 22:52:00
4:52 PM,28.0,23.0,81,29.94,10.0,NNW,5.8,-,N/A,,Mostly Cloudy,330,2012-11-10 23:52:00
5:23 PM,28.4,23.0,80,29.89,2.0,NNW,4.6,-,0.00,Snow,Light Snow,330,2012-11-11 00:23:00
5:32 PM,28.4,23.0,80,29.90,1.2,NNW,8.1,-,0.00,Snow,Light Snow,330,2012-11-11 00:32:00
5:37 PM,26.6,23.0,86,29.90,0.8,NNE,6.9,-,0.01,Snow,Light Snow,20,2012-11-11 00:37:00
5:55 PM,26.6,24.8,93,29.91,3.0,NE,4.6,-,0.00,Snow,Light Snow,40,2012-11-11 00:55:00
6:02 PM,24.8,23.0,93,29.91,9.0,NE,3.5,-,0.00,,Mostly Cloudy,50,2012-11-11 01:02:00
6:52 PM,23.0,19.9,88,30.02,10.0,NNE,4.6,-,0.00,,Overcast,20,2012-11-11 01:52:00
7:12 PM,24.8,21.2,86,29.95,10.0,Calm,Calm,-,N/A,,Overcast,0,2012-11-11 02:12:00
7:32 PM,26.6,23.0,86,29.95,1.2,Calm,Calm,-,0.01,Snow,Light Snow,0,2012-11-11 02:32:00
7:39 PM,26.6,23.0,86,29.95,0.8,Calm,Calm,-,0.01,Snow,Light Snow,0,2012-11-11 02:39:00
7:52 PM,25.0,23.0,92,30.02,4.0,SE,4.6,-,0.01,Snow,Light Snow,140,2012-11-11 02:52:00
8:02 PM,24.8,21.2,86,29.95,7.0,SE,5.8,-,0.00,Snow,Light Snow,130,2012-11-11 03:02:00
8:46 PM,17.6,15.8,93,29.96,1.5,SW,6.9,-,0.00,,Partly Cloudy,220,2012-11-11 03:46:00
8:59 PM,17.6,15.8,93,29.97,1.0,WSW,8.1,-,N/A,,Mist,240,2012-11-11 03:59:00
9:04 PM,17.6,15.8,93,29.97,0.8,WSW,8.1,-,N/A,,Mist,250,2012-11-11 04:04:00
9:16 PM,19.4,17.6,93,29.97,2.0,West,9.2,-,N/A,,Mostly Cloudy,270,2012-11-11 04:16:00
9:22 PM,19.4,17.6,93,29.98,10.0,West,6.9,-,N/A,,Mostly Cloudy,280,2012-11-11 04:22:00
9:40 PM,19.4,17.6,93,29.98,0.8,West,8.1,-,N/A,,Overcast,280,2012-11-11 04:40:00
9:47 PM,19.4,15.8,86,29.99,1.8,West,8.1,-,N/A,,Overcast,280,2012-11-11 04:47:00
9:52 PM,19.0,16.0,88,30.08,10.0,East,3.5,-,N/A,,Mostly Cloudy,80,2012-11-11 04:52:00
10:57 PM,15.8,14.0,93,30.01,0.8,Calm,Calm,-,N/A,,Mist,0,2012-11-11 05:57:00
11:07 PM,12.2,8.6,85,30.01,3.0,WNW,5.8,-,N/A,,Scattered Clouds,300,2012-11-11 06:07:00
11:52 PM,15.1,10.9,84,30.14,10.0,West,3.5,-,N/A,,Clear,260,2012-11-11 06:52:00